Flag for U.S.A. Weather past 2 weeks in Howell, Michigan, U.S.A.

Now
41 °F

Overcast.


Feels Like: 39 °F
Forecast: 37 / 47 °F
Wind: 3 mph from South

Location: Livingston County Airport

Current Time: Dec 26, 2014 at 10:53:44 PM

Latest Report: Dec 26, 2014 at 10:35 PM


Visibility: 10 mi

Pressure: 30.09 "Hg

Humidity: 92%

Dew point: 39 °F

Location of HowellLocation

Historic Weather in Howell — Graph

°F

Howell temperature yesterday

Maximum temperature yesterday: 36 °F (at 11:35 AM)
Minimum temperature yesterday: 32 °F (at 10:55 PM)
Average temperature yesterday: 34 °F

Past Weeks' High & Low Weather Summary

 TemperatureHumidityPressure
High51 °F (Dec 14, 5:55 PM)100% (Dec 12, 11:54 PM)30.31 "Hg (Dec 12, 11:54 PM)
Low17 °F (Dec 20, 1:35 AM)64% (Dec 26, 3:34 PM)29.23 "Hg (Dec 24, 6:55 PM)
Average35 °F91%30.01 "Hg
* Reported Dec 11 9:15 PM — Dec 26 9:35 PM, Howell, Weather by CustomWeather, © 2014

Note: Actual official high and low records may vary slightly from our data, if they occured in-between our weather recording intervals... More about our weather records

Advertising

Howell weather history for previous 24 hours

 ConditionsComfort  
Time TempWeatherWind HumidityBarometerVisibility
9:35 PM
Dec 26
40 °FOvercast.3 mph93%30.09 "Hg10 mi
9:15 PM40 °FOvercast.6 mph93%30.08 "Hg10 mi
8:55 PM38 °FPassing clouds.7 mph94%30.08 "Hg10 mi
8:35 PM38 °FClear.6 mph93%30.08 "Hg10 mi
8:15 PM39 °FClear.6 mph91%30.08 "Hg10 mi
7:55 PM39 °FClear.6 mph90%30.08 "Hg10 mi
7:35 PM39 °FClear.7 mph89%30.08 "Hg10 mi
6:55 PM40 °FClear.7 mph87%30.07 "Hg10 mi
6:34 PM40 °FClear.7 mph87%30.07 "Hg10 mi
6:15 PM40 °FClear.7 mph83%30.07 "Hg10 mi
5:55 PM41 °FClear.8 mph81%30.07 "Hg10 mi
5:34 PM42 °FClear.7 mph78%30.06 "Hg10 mi
5:15 PM43 °FClear.7 mph75%30.06 "Hg10 mi
4:55 PM44 °FSunny.7 mph73%30.05 "Hg10 mi
4:15 PM46 °FScattered clouds.9 mph67%30.04 "Hg10 mi
3:55 PM47 °FSunny.8 mph66%30.04 "Hg10 mi
3:34 PM47 °FSunny.8 mph64%30.04 "Hg10 mi
3:15 PM47 °FSunny.8 mph65%30.03 "Hg10 mi
2:55 PM47 °FSunny.9 mph65%30.03 "Hg10 mi
2:34 PM46 °FSunny.9 mph65%30.03 "Hg10 mi
2:15 PM46 °FSunny.8 mph67%30.04 "Hg10 mi
1:55 PM46 °FSunny.9 mph67%30.03 "Hg10 mi
1:35 PM45 °FSunny.12 mph68%30.03 "Hg10 mi
1:15 PM45 °FSunny.9 mph69%30.03 "Hg10 mi
12:55 PM45 °FSunny.9 mph70%30.04 "Hg10 mi
12:35 PM44 °FSunny.8 mph72%30.05 "Hg10 mi
12:15 PM44 °FSunny.9 mph73%30.06 "Hg10 mi
11:54 AM42 °FSunny.9 mph75%30.07 "Hg10 mi
11:35 AM41 °FSunny.12 mph78%30.08 "Hg10 mi
11:15 AM40 °FSunny.12 mph79%30.09 "Hg10 mi
10:54 AM39 °FSunny.10 mph82%30.10 "Hg10 mi
10:35 AM38 °FSunny.12 mph84%30.10 "Hg10 mi
10:15 AM37 °FSunny.8 mph86%30.10 "Hg10 mi
9:54 AM35 °FSunny.10 mph89%30.10 "Hg10 mi
9:35 AM34 °FSunny.7 mph91%30.09 "Hg10 mi
9:15 AM34 °FSunny.8 mph93%30.09 "Hg10 mi
8:54 AM33 °FSunny.9 mph96%30.08 "Hg7 mi
8:35 AM33 °FSunny.7 mph96%30.08 "Hg7 mi
8:15 AM32 °FSunny.8 mph96%30.07 "Hg7 mi
7:54 AM32 °FClear.6 mph96%30.08 "Hg10 mi
7:35 AM32 °FClear.6 mph96%30.09 "Hg10 mi
7:15 AM32 °FClear.8 mph97%30.09 "Hg10 mi
6:55 AM32 °FClear.8 mph96%30.08 "Hg10 mi
6:35 AM32 °FClear.7 mph96%30.08 "Hg10 mi
6:15 AM32 °FClear.7 mph96%30.07 "Hg10 mi
5:55 AM33 °FClear.7 mph95%30.07 "Hg10 mi
5:35 AM33 °FClear.7 mph94%30.07 "Hg10 mi
5:15 AM34 °FClear.7 mph92%30.07 "Hg10 mi
4:55 AM34 °FClear.8 mph92%30.08 "Hg10 mi
4:35 AM34 °FClear.7 mph92%30.08 "Hg10 mi
4:14 AM34 °FClear.8 mph92%30.09 "Hg10 mi
3:55 AM34 °FClear.6 mph92%30.10 "Hg10 mi
3:35 AM34 °FClear.7 mph92%30.10 "Hg10 mi
3:14 AM34 °FClear.7 mph92%30.10 "Hg10 mi
2:55 AM34 °FClear.7 mph91%30.10 "Hg10 mi
2:35 AM33 °FClear.6 mph92%30.10 "Hg10 mi
2:14 AM34 °FClear.7 mph91%30.09 "Hg10 mi
1:55 AM33 °FClear.7 mph91%30.09 "Hg10 mi
1:35 AM33 °FClear.8 mph91%30.09 "Hg10 mi
1:14 AM33 °FClear.8 mph92%30.08 "Hg10 mi
12:55 AM33 °FClear.7 mph92%30.08 "Hg10 mi
12:35 AM33 °FClear.5 mph91%30.08 "Hg10 mi
12:14 AM32 °FClear.5 mph92%30.09 "Hg10 mi
11:55 PM
Dec 25
32 °FClear.6 mph92%30.08 "Hg10 mi
11:35 PM32 °FClear.6 mph91%30.07 "Hg10 mi
10:55 PM32 °FClear.7 mph90%30.08 "Hg10 mi
10:35 PM32 °FClear.7 mph91%30.08 "Hg10 mi
Weather by CustomWeather, © 2014

See weather overviewHow to use our weather pages